Location: Unnamed
(53.9021°N, 27.5568°E)
Time: 19:29:24
(UTC+03:00)

STARLINK-73 - Pass Details

Date: 20 January 2020
Orbit: 528 x 531 km, 53.0° (Epoch: 25 February)

Event Time Altitude Azimuth Distance (km) Brightness Sun altitude
Rises 08:08:02 0° 231° (SW) 2,662 6.8 -9.5°
Reaches altitude 10° 08:10:19 10° 224° (SW) 1,775 6.0 -9.2°
Maximum altitude 08:14:06 41° 154° (SSE) 778 4.8 -8.7°
Drops below altitude 10° 08:17:55 10° 84° (E) 1,784 7.3 -8.2°
Sets 08:20:13 0° 77° (ENE) 2,677 8.1 -7.9°
